Weather History for Wittering, United Kingdom

Change the Weather History Date:

Wednesday, January 9, 2013

  Actual Average Record
Temperature  
Mean Temperature 39 °F -  
Max Temperature 48 °F 43 °F 59 °F (2015)
Min Temperature 30 °F 34 °F 26 °F (2009)
Degree Days  
Heating Degree Days 26    
Moisture  
Dew Point 37 °F    
Average Humidity 93    
Maximum Humidity 100    
Minimum Humidity 81    
Precipitation  
Precipitation 0.00 in - - ()
Sea Level Pressure  
Sea Level Pressure 30.14 in    
Wind  
Wind Speed 6 mph ()    
Max Wind Speed 9 mph    
Max Gust Speed -    
Visibility 4.5 miles    
Events Rain , Snow    
Averages and records for this station are not official NWS values.
T = Trace of Precipitation, MM = Missing Value Source: Averaged Metar Reports

Daily Weather History Graph

Daily Weather History Graph

Search for Another Location

Airport:

Trip Planner

Search our weather history database for the weather conditions in past years. The results will help you decide how hot, cold, wet, or windy it might be!

Date:

Astronomy

Jan. 09, 2013 Rise Set
Actual Time 8:10 AM GMT 4:08 PM GMT
Civil Twilight 7:29 AM GMT 4:48 PM GMT
Nautical Twilight 6:46 AM GMT 5:32 PM GMT
Astronomical Twilight 6:04 AM GMT 6:13 PM GMT
Moon 5:33 AM GMT (1/9) 1:53 PM GMT (1/9)
Length of Visible Light 9h 19m
Length of Day
7h 58m
Waning Crescent, 8% of the Moon is Illuminated
Jan 9
Waning Crescent
Jan 11
New
Jan 18
First Quarter
Jan 27
Full
Feb 3
Last Quarter

Hourly Weather History & Observations

Time (GMT) Temp. Windchill Dew Point Humidity Pressure Visibility Wind Dir Wind Speed Gust Speed Precip Events Conditions
12:50 AM 48.2 °F - 46.4 °F 93% 30.15 in 2.5 mi NNW 8.1 mph - N/A Rain Rain Showers
1:50 AM 46.4 °F 42.9 °F 46.4 °F 100% 30.15 in 1.2 mi NNW 6.9 mph - N/A   Light Drizzle
2:50 AM 46.4 °F 42.4 °F 44.6 °F 93% 30.15 in 4.3 mi NNW 8.1 mph - N/A Rain Light Rain
3:50 AM 44.6 °F 42.2 °F 44.6 °F 100% 30.15 in 4.3 mi NNW 4.6 mph - N/A   Mostly Cloudy
4:50 AM 44.6 °F 40.7 °F 42.8 °F 93% 30.15 in 5.6 mi NNW 6.9 mph - N/A   Haze
5:50 AM 42 °F - 40 °F 91% 30.17 in 6 mi NNW 6.9 mph - -   Light Haze
5:50 AM 42.8 °F 38.6 °F 41.0 °F 93% 30.15 in 5.6 mi NNW 6.9 mph - N/A   Haze
6:50 AM 39.2 °F 34.2 °F 37.4 °F 93% 30.15 in 6.2 mi NW 6.9 mph - N/A   Unknown
7:50 AM 39.2 °F 34.2 °F 37.4 °F 93% 30.18 in 6.2 mi NW 6.9 mph - N/A   Unknown
8:50 AM 39 °F - 37 °F 89% 30.20 in 7 mi NW 6.9 mph - -  
8:50 AM 39.2 °F 34.2 °F 37.4 °F 93% 30.18 in 6.2 mi NW 6.9 mph - N/A   Unknown
9:50 AM 41.0 °F 36.4 °F 37.4 °F 87% 30.18 in 6.2 mi NW 6.9 mph - N/A   Unknown
10:50 AM 42.8 °F 38.6 °F 37.4 °F 81% 30.18 in 6.2 mi NW 6.9 mph - N/A   Unknown
11:50 AM - - - N/A% 0.00 in 6.2 mi NW 4.6 mph - N/A   Unknown
12:50 PM - - - N/A% 0.00 in 6.2 mi NW 5.8 mph - N/A   Unknown
1:50 PM - - - N/A% 0.00 in 6.2 mi NNW 5.8 mph - N/A   Unknown
2:50 PM - - - N/A% 0.00 in 6.2 mi NNW 4.6 mph - N/A   Unknown
3:50 PM 41.0 °F 38.0 °F 35.6 °F 81% 30.15 in 6.2 mi NW 4.6 mph - N/A   Unknown
4:50 PM 39.2 °F 37.0 °F 35.6 °F 87% 30.12 in 6.2 mi West 3.5 mph - N/A   Unknown
5:50 PM 36 °F - 35 °F 92% 30.15 in 6 mi West 5.8 mph - -   Light Haze
5:50 PM 35.6 °F 30.7 °F 33.8 °F 93% 30.12 in 5.6 mi West 5.8 mph - N/A   Haze
6:50 PM 35.6 °F 29.2 °F 33.8 °F 93% 30.12 in 4.3 mi West 8.1 mph - N/A   Mist
7:50 PM 33.8 °F 26.4 °F 33.8 °F 100% 30.09 in - West 9.2 mph - N/A   Mist
8:50 PM 36 °F - 35 °F 95% 30.13 in 3 mi WNW 6.9 mph - -   Mist
8:50 PM 35.6 °F 29.9 °F 35.6 °F 100% 30.09 in 2.8 mi WNW 6.9 mph - N/A   Mist
9:50 PM 32.0 °F 24.8 °F 32.0 °F 100% 30.09 in 0.1 mi West 8.1 mph - N/A   Scattered Clouds
10:50 PM 32.0 °F 24.8 °F 30.2 °F 93% 30.06 in 0.1 mi West 8.1 mph - N/A Snow Snow Grains
11:50 PM 30 °F - 30 °F 100% 30.09 in 0 mi West 8.1 mph - - Snow Snow Grains
11:50 PM 30.2 °F 22.6 °F 30.2 °F 100% 30.06 in 0.1 mi West 8.1 mph - N/A Snow Snow Grains